User: anonymous   Login
Location: Camaret
(48.2753°N, 4.5961°W)
Time: 05:25:13
(UTC+00:00)
Language:

Ariane Rocket - Orbit

View from above orbital plane
View from above orbital plane
View from above satellite
View from above satellite

Ground track
Ground track

The orbit data is extracted from the following two-line orbital elements,

1 23561U 95021B   21015.62725194  .00000037  00000-0  27307-4 0  9992
2 23561  98.6979  63.7725 0006628 353.7776 168.5886 14.38004319349064
Epoch (UTC): 15 January 2021 15:03:14
Eccentricity: 0.0006628
inclination: 98.6979°
perigee height: 760 km
apogee height: 770 km
right ascension of ascending node: 63.7725°
argument of perigee: 353.7776°
revolutions per day: 14.38004319
mean anomaly at epoch: 168.5886°
orbit number at epoch: 34906

The dashed part of the orbit path shows where the satellite is in the earth's shadow,  

DLR